| time (UTC) | temp C | wind direction | speed KPH | gust KPH | rain 1hr cm | rain 24hr cm | rain mn cm | humidity % | barometer mb |
| 20260508020059 | 23 | 55 | 3.2 | 14.5 | 0.00 | 0.00 | 0.00 | 75 | 1014.1 |
| 20260508014554 | 23 | 57 | 4.8 | 9.7 | 0.00 | 0.00 | 0.00 | 77 | 1014.5 |
| 20260508013057 | 23 | 67 | 3.2 | 8.0 | 0.00 | 0.00 | 0.00 | 77 | 1014.3 |
| 20260508011606 | 23 | 28 | 1.6 | 6.4 | 0.00 | 0.00 | 0.00 | 77 | 1014.1 |
| 20260508010105 | 24 | 51 | 4.8 | 8.0 | 0.00 | 0.00 | 0.00 | 75 | 1014.0 |
| 20260508004553 | 24 | 47 | 3.2 | 12.9 | 0.00 | 0.00 | 0.00 | 74 | 1013.9 |
| 20260508003111 | 24 | 63 | 4.8 | 16.1 | 0.00 | 0.00 | 0.00 | 75 | 1013.7 |
| 20260508001553 | 25 | 46 | 4.8 | 9.7 | 0.00 | 0.00 | 0.00 | 75 | 1013.9 |
| 20260508000116 | 25 | 39 | 4.8 | 14.5 | 0.00 | 0.00 | 0.00 | 74 | 1013.8 |
| 20260507234555 | 25 | 53 | 4.8 | 11.3 | 0.00 | 0.00 | 0.00 | 72 | 1013.8 |
| 20260507233055 | 25 | 61 | 1.6 | 17.7 | 0.00 | 0.00 | 0.00 | 73 | 1013.9 |
| 20260507231559 | 25 | 71 | 6.4 | 9.7 | 0.00 | 0.00 | 0.00 | 72 | 1013.8 |
| 20260507230055 | 25 | 65 | 4.8 | 14.5 | 0.00 | 0.00 | 0.00 | 72 | 1013.8 |
| 20260507224557 | 25 | 55 | 6.4 | 14.5 | 0.00 | 0.00 | 0.00 | 70 | 1013.9 |
| 20260507223053 | 26 | 38 | 6.4 | 14.5 | 0.00 | 0.00 | 0.00 | 69 | 1013.7 |
| 20260507221602 | 26 | 36 | 4.8 | 12.9 | 0.00 | 0.00 | 0.00 | 69 | 1013.8 |
| 20260507220055 | 26 | 132 | 4.8 | 12.9 | 0.00 | 0.00 | 0.00 | 69 | 1013.9 |
| 20260507214557 | 26 | 47 | 6.4 | 16.1 | 0.00 | 0.00 | 0.00 | 69 | 1013.7 |
| 20260507213058 | 25 | 19 | 6.4 | 14.5 | 0.00 | 0.00 | 0.00 | 73 | 1013.8 |
| 20260507211601 | 25 | 323 | 6.4 | 14.5 | 0.00 | 0.00 | 0.00 | 72 | 1014.1 |
| 20260507210056 | 25 | 17 | 9.7 | 16.1 | 0.00 | 0.00 | 0.00 | 72 | 1014.2 |
| 20260507204554 | 25 | 40 | 6.4 | 12.9 | 0.00 | 0.00 | 0.00 | 72 | 1014.5 |
| 20260507203056 | 24 | 43 | 4.8 | 19.3 | 0.00 | 0.00 | 0.00 | 72 | 1014.6 |
| 20260507201557 | 24 | 15 | 11.3 | 19.3 | 0.00 | 0.00 | 0.00 | 72 | 1014.7 |
| 20260507200103 | 24 | 27 | 4.8 | 16.1 | 0.00 | 0.00 | 0.00 | 73 | 1015.0 |
| 20260507194557 | 23 | 30 | 8.0 | 14.5 | 0.00 | 0.00 | 0.00 | 73 | 1015.0 |
| 20260507193057 | 23 | 10 | 3.2 | 9.7 | 0.00 | 0.00 | 0.00 | 73 | 1015.3 |
| 20260507191555 | 23 | 46 | 4.8 | 14.5 | 0.00 | 0.00 | 0.00 | 74 | 1015.5 |
| 20260507190059 | 23 | 32 | 6.4 | 17.7 | 0.00 | 0.00 | 0.00 | 74 | 1015.5 |
| 20260507184555 | 22 | 34 | 4.8 | 12.9 | 0.00 | 0.00 | 0.00 | 78 | 1015.7 |
| 20260507183056 | 21 | 19 | 8.0 | 17.7 | 0.00 | 0.00 | 0.00 | 77 | 1015.8 |
| 20260507181554 | 21 | 14 | 8.0 | 17.7 | 0.00 | 0.00 | 0.00 | 77 | 1016.1 |
| 20260507180106 | 21 | 28 | 8.0 | 17.7 | 0.00 | 0.00 | 0.00 | 78 | 1016.0 |
| 20260507174625 | 21 | 360 | 11.3 | 20.9 | 0.00 | 0.00 | 0.00 | 79 | 1016.3 |
| 20260507173055 | 20 | 15 | 8.0 | 19.3 | 0.00 | 0.00 | 0.00 | 80 | 1016.4 |
| 20260507171611 | 20 | 24 | 6.4 | 16.1 | 0.00 | 0.00 | 0.00 | 80 | 1016.5 |
| 20260507170100 | 19 | 17 | 9.7 | 17.7 | 0.00 | 0.00 | 0.00 | 80 | 1016.5 |
| 20260507164556 | 19 | 26 | 8.0 | 19.3 | 0.00 | 0.00 | 0.00 | 81 | 1016.3 |
| 20260507163055 | 18 | 9 | 6.4 | 17.7 | 0.00 | 0.00 | 0.00 | 82 | 1016.5 |
| 20260507161557 | 18 | 352 | 8.0 | 19.3 | 0.00 | 0.00 | 0.00 | 82 | 1016.4 |
| 20260507160116 | 18 | 57 | 9.7 | 17.7 | 0.00 | 0.00 | 0.00 | 83 | 1016.3 |
| 20260507154554 | 18 | 48 | 9.7 | 17.7 | 0.00 | 0.00 | 0.00 | 83 | 1016.6 |
| 20260507153053 | 18 | 26 | 9.7 | 17.7 | 0.00 | 0.00 | 0.00 | 83 | 1016.6 |
| 20260507151559 | 18 | 9 | 9.7 | 19.3 | 0.00 | 0.00 | 0.00 | 83 | 1016.7 |
| 20260507150056 | 18 | 313 | 8.0 | 24.1 | 0.00 | 0.00 | 0.00 | 84 | 1016.4 |
| 20260507144556 | 18 | 55 | 12.9 | 19.3 | 0.00 | 0.00 | 0.00 | 82 | 1016.4 |
| 20260507143101 | 18 | 32 | 11.3 | 17.7 | 0.00 | 0.00 | 0.00 | 83 | 1016.0 |
| 20260507141612 | 18 | 22 | 8.0 | 17.7 | 0.00 | 0.00 | 0.00 | 84 | 1016.1 |
| 20260507140113 | 18 | 24 | 11.3 | 20.9 | 0.00 | 0.00 | 0.00 | 84 | 1015.7 |
| 20260507134600 | 18 | 29 | 9.7 | 20.9 | 0.00 | 0.00 | 0.00 | 85 | 1016.2 |
| 20260507133104 | 18 | 46 | 12.9 | 19.3 | 0.00 | 0.00 | 0.00 | 84 | 1016.2 |
| 20260507131617 | 18 | 13 | 6.4 | 16.1 | 0.00 | 0.00 | 0.00 | 84 | 1016.2 |
| 20260507130056 | 18 | 32 | 9.7 | 19.3 | 0.00 | 0.00 | 0.00 | 84 | 1016.0 |
| 20260507124602 | 19 | 39 | 6.4 | 17.7 | 0.00 | 0.00 | 0.00 | 85 | 1015.5 |
| 20260507123058 | 19 | 53 | 8.0 | 17.7 | 0.00 | 0.00 | 0.00 | 85 | 1015.2 |
| 20260507121557 | 19 | 352 | 6.4 | 14.5 | 0.00 | 0.00 | 0.00 | 85 | 1014.9 |
| 20260507120054 | 19 | 32 | 6.4 | 16.1 | 0.00 | 0.00 | 0.00 | 86 | 1014.7 |
| 20260507114554 | 19 | 13 | 4.8 | 12.9 | 0.00 | 0.00 | 0.00 | 86 | 1014.6 |
| 20260507113128 | 19 | 22 | 4.8 | 9.7 | 0.00 | 0.00 | 0.00 | 86 | 1014.2 |
| 20260507111553 | 20 | 11 | 4.8 | 12.9 | 0.00 | 0.00 | 0.00 | 85 | 1014.2 |
| 20260507110053 | 20 | 11 | 6.4 | 16.1 | 0.00 | 0.00 | 0.00 | 85 | 1014.0 |
| 20260507104602 | 20 | 25 | 6.4 | 16.1 | 0.00 | 0.00 | 0.00 | 86 | 1013.9 |
| 20260507103054 | 20 | 40 | 8.0 | 14.5 | 0.00 | 0.00 | 0.00 | 86 | 1013.9 |
| 20260507101557 | 20 | 26 | 8.0 | 17.7 | 0.00 | 0.00 | 0.00 | 85 | 1013.6 |
| 20260507100101 | 20 | 19 | 9.7 | 20.9 | 0.00 | 0.00 | 0.00 | 85 | 1013.4 |
| 20260507094606 | 20 | 23 | 8.0 | 14.5 | 0.00 | 0.00 | 0.00 | 85 | 1013.4 |
| 20260507093054 | 21 | 19 | 8.0 | 17.7 | 0.00 | 0.00 | 0.00 | 85 | 1013.2 |
| 20260507091556 | 21 | 352 | 11.3 | 20.9 | 0.00 | 0.00 | 0.00 | 84 | 1013.3 |
| 20260507090053 | 21 | 29 | 6.4 | 17.7 | 0.00 | 0.00 | 0.00 | 85 | 1013.2 |
| 20260507084600 | 21 | 34 | 6.4 | 16.1 | 0.00 | 0.00 | 0.00 | 84 | 1012.9 |
| 20260507083100 | 21 | 352 | 8.0 | 17.7 | 0.00 | 0.00 | 0.00 | 84 | 1012.8 |
| 20260507081607 | 21 | 10 | 4.8 | 17.7 | 0.00 | 0.00 | 0.00 | 84 | 1013.0 |
| 20260507080109 | 21 | 9 | 4.8 | 16.1 | 0.00 | 0.00 | 0.00 | 84 | 1012.9 |
| 20260507074606 | 21 | 9 | 11.3 | 17.7 | 0.00 | 0.00 | 0.00 | 84 | 1013.1 |
| 20260507073110 | 21 | 15 | 6.4 | 17.7 | 0.00 | 0.00 | 0.00 | 84 | 1013.2 |
| 20260507071600 | 22 | 325 | 6.4 | 14.5 | 0.00 | 0.00 | 0.00 | 83 | 1013.1 |
| 20260507070108 | 22 | 32 | 6.4 | 16.1 | 0.00 | 0.00 | 0.00 | 84 | 1013.1 |
| 20260507064605 | 22 | 9 | 9.7 | 20.9 | 0.00 | 0.00 | 0.00 | 84 | 1013.1 |
| 20260507063056 | 22 | 360 | 8.0 | 17.7 | 0.00 | 0.00 | 0.00 | 84 | 1013.1 |
| 20260507061559 | 22 | 340 | 6.4 | 12.9 | 0.00 | 0.00 | 0.00 | 85 | 1013.0 |
| 20260507060100 | 22 | 16 | 9.7 | 16.1 | 0.00 | 0.00 | 0.00 | 85 | 1012.8 |
| 20260507054556 | 22 | 13 | 8.0 | 19.3 | 0.00 | 0.00 | 0.00 | 86 | 1012.7 |
| 20260507053052 | 22 | 37 | 8.0 | 17.7 | 0.00 | 0.00 | 0.00 | 86 | 1012.8 |
| 20260507051600 | 22 | 54 | 6.4 | 14.5 | 0.00 | 0.00 | 0.00 | 87 | 1012.7 |
| 20260507050108 | 23 | 24 | 8.0 | 16.1 | 0.00 | 0.00 | 0.00 | 87 | 1012.8 |
| 20260507044558 | 23 | 9 | 9.7 | 17.7 | 0.00 | 0.00 | 0.00 | 87 | 1012.8 |
| 20260507043054 | 23 | 352 | 6.4 | 16.1 | 0.00 | 0.00 | 0.00 | 90 | 1012.9 |
| 20260507041556 | 25 | 329 | 0.0 | 3.2 | 0.00 | 0.00 | 0.00 | 93 | 1012.6 |
| 20260507040101 | 25 | 0 | 0.0 | 3.2 | 0.00 | 0.00 | 0.00 | 92 | 1012.4 |
| 20260507034559 | 25 | 234 | 0.0 | 3.2 | 0.00 | 0.00 | 0.00 | 92 | 1012.2 |
| 20260507033053 | 25 | 234 | 0.0 | 3.2 | 0.00 | 0.00 | 0.00 | 92 | 1012.0 |
| 20260507031557 | 25 | 0 | 0.0 | 3.2 | 0.00 | 0.00 | 0.00 | 91 | 1011.8 |
| 20260507024601 | 25 | 158 | 0.0 | 4.8 | 0.00 | 0.00 | 0.00 | 91 | 1011.4 |
| 20260507023054 | 25 | 0 | 0.0 | 3.2 | 0.00 | 0.00 | 0.00 | 90 | 1011.4 |
| 20260507021602 | 25 | 152 | 1.6 | 4.8 | 0.00 | 0.00 | 0.00 | 90 | 1011.1 |